907  
NZUS93 KARX 170410  
HRRWXR  
 
CURRENT HOURLY OBSERVATIONS ACROSS  
MUCH OF THE UPPER MISSISSIPPI VALLEY  
NATIONAL WEATHER SERVICE LA CROSSE WI  
1100 PM CDT TUE JUL 16 2019  
 
   
..SOUTHEAST MINNESOTA
 
 
 
CITY SKY/WX TMP DP RH WIND PRES REMARKS  
ROCHESTER FAIR 67 65 93 CALM 29.93R  
ROCHESTER/MAYO FAIR 69 67 93 CALM 29.93R  
WINONA FAIR 72 68 88 NW3 29.91R  
AUSTIN FAIR 72 64 78 CALM 29.93R  
ALBERT LEA NOT AVBL  
DODGE CENTER FAIR 66 63 88 CALM 29.93R  
PRESTON FAIR 69 67 94 CALM 29.93S  
OWATONNA NOT AVBL  
FARIBAULT NOT AVBL  

 
   
..ELSEWHERE IN MINNESOTA
 
 
 
CITY SKY/WX TMP DP RH WIND PRES REMARKS  
MINNEAPOLIS FAIR 78 70 76 S5 29.89S  
INTNL FALLS CLOUDY 64 63 96 CALM 29.92R  
DULUTH FAIR 68 62 81 CALM 29.92S  
RED WING FAIR 70 68 94 CALM 29.89F  
REDWOOD FALLS CLEAR 72 65 78 CALM 29.89R  
MANKATO FAIR 72 70 93 S6 29.91S  
WORTHINGTON CLEAR 71 67 87 S5 29.94R  
FAIRMONT CLEAR 69 67 93 CALM 29.93R  

 
   
..SOUTHWEST WISCONSIN
 
 
 
CITY SKY/WX TMP DP RH WIND PRES REMARKS  
LA CROSSE MOCLDY 76 69 79 N6 29.89R  
PRAIRIE DU CHI DRIZZLE 71 67 89 CALM 29.90R  
BOSCOBEL LGT RAIN 71 67 87 NW10 29.92R  
LONE ROCK CLOUDY 69 66 90 SE6 29.92R THUNDER  
PLATTEVILLE MOCLDY 77 75 96 NW3 29.91R  
FORT MC COY FAIR 71 67 88 CALM 29.91F  
CAMP DOUGLAS CLOUDY 73 70 88 S1 29.91R  
MAUSTON-NEW LI FAIR 73 69 87 NW6 29.90S  
VIROQUA CLOUDY 72 72 100 W6 29.94R  
WIS DELLS MOCLDY 75 60 58 CALM 29.90S  

 
   
..ELSEWHERE IN WISCONSIN
 
 
 
CITY SKY/WX TMP DP RH WIND PRES REMARKS  
MILWAUKEE FAIR 77 70 79 SW3 29.87S  
MADISON LGT RAIN 76 67 73 NW5 29.88S  
GREEN BAY FAIR 79 72 79 N6 29.87R  
EAU CLAIRE FAIR 68 65 90 S8 29.90R  
BLACK RVR FLS FAIR 70 70 99 CALM 29.90S  
MEDFORD FAIR 68 67 96 CALM 29.93S  
WAUSAU FAIR 74 66 76 E3 29.89S  
WIS RAPIDS FAIR 77 71 82 NW7 29.91R  
MARSHFIELD FAIR 73 69 87 N3 29.91R  
RICE LAKE FAIR 70 70 100 CALM 29.93S  

 
   
..NORTHEAST IOWA
 
 
 
CITY SKY/WX TMP DP RH WIND PRES REMARKS  
WATERLOO FAIR 74 68 81 CALM 29.89S  
DUBUQUE FAIR 74 70 87 SW5 29.91S  
DECORAH MOCLDY 75 73 94 CALM 29.92R  
MASON CITY CLEAR 71 69 93 SE7 29.92F  
CHARLES CITY FAIR 72 72 100 CALM 29.92F  
OELWEIN MOCLDY 72 72 100 CALM 29.92S  

 
   
..ELSEWHERE IN IOWA
 
 
 
CITY SKY/WX TMP DP RH WIND PRES REMARKS  
DES MOINES PTCLDY 80 70 71 S7 29.89S  
IOWA CITY MOCLDY 77 72 84 CALM 29.90S  
FORT DODGE CLEAR 74 72 93 NE5 29.91S  
MARSHALLTOWN CLEAR 72 70 93 SE5 29.90S  
CEDAR RAPIDS MOCLDY 71 70 96 NW7 29.89S  

 
   
..NORTHERN ILLINOIS
 
 
 
CITY SKY/WX TMP DP RH WIND PRES REMARKS  
CHICAGO-OHARE CLOUDY 78 71 79 SE5 29.88S  
CHICAGO-MIDWAY MOCLDY 79 74 84 CALM 29.88S  
MOLINE FAIR 76 70 82 W5 29.88S  
ROCKFORD FAIR 75 72 90 S3 29.89S  
PEORIA FAIR 76 73 91 CALM 29.89S  

 
 
NOTE: "FAIR" INDICATES FEW OR NO CLOUDS BELOW 12,000 FEET WITH NO  
SIGNIFICANT WEATHER AND/OR OBSTRUCTIONS TO VISIBILITY. WIND  
SPEEDS ARE IN MILES-PER-HOUR.  
 
 
CLICK HERE TO GO TO PREVIOUS BULLETINS.

The Nexlab WI Page
The Nexlab IA Page
The Nexlab MN Page Main Text Page